DW2893 Weather Reports


Display with metric or nautical units.
time (UTC)temp
F
wind
direction
speed
MPH
gust
MPH
rain 1hr
in
rain 24hr
in
rain mn
in
humidity
%
barometer
mb
20260905040306 88 179 5.0 7.0 0.00 0.00 0.00 59 1011.6
20260905035807 88 160 5.0 8.0 0.00 0.00 0.00 58 1011.6
20260905033805 89 132 4.0 9.0 0.00 0.00 0.00 57 1011.5
20260905032805 89 141 5.0 8.0 0.00 0.00 0.00 56 1011.5
20260905031804 89 145 3.0 9.0 0.00 0.00 0.00 56 1011.5
20260905030305 90 151 5.0 9.0 0.00 0.00 0.00 56 1011.3
20260905025805 90 155 5.0 8.0 0.00 0.00 0.00 55 1011.3
20260905025306 90 138 5.0 9.0 0.00 0.00 0.00 55 1011.3
20260905024810 90 134 6.0 8.0 0.00 0.00 0.00 55 1011.3
20260905024306 90 148 3.0 8.0 0.00 0.00 0.00 55 1011.3
20260905022306 90 141 5.0 10.0 0.00 0.00 0.00 54 1010.7
20260905021807 91 147 4.0 9.0 0.00 0.00 0.00 54 1010.7
20260905021306 91 129 5.0 10.0 0.00 0.00 0.00 53 1010.7
20260905020307 91 139 5.0 10.0 0.00 0.00 0.00 52 1010.2
20260905015809 91 137 5.0 8.0 0.00 0.00 0.00 52 1010.2
20260905015306 91 137 5.0 10.0 0.00 0.00 0.00 52 1010.2
20260905014807 91 138 5.0 9.0 0.00 0.00 0.00 53 1010.2
20260905014305 91 139 3.0 12.0 0.00 0.00 0.00 52 1010.2
20260905012807 92 119 5.0 12.0 0.00 0.00 0.00 51 1010.2
20260905012307 92 125 6.0 12.0 0.00 0.00 0.00 50 1010.2
20260905011304 92 132 7.0 12.0 0.00 0.00 0.00 50 1010.2
20260905010806 93 113 6.0 12.0 0.00 0.00 0.00 50 1010.0
20260905004804 93 143 3.0 9.0 0.00 0.00 0.00 49 1009.9
20260905004306 93 140 5.0 12.0 0.00 0.00 0.00 49 1009.9
20260905003805 94 134 6.0 15.0 0.00 0.00 0.00 49 1009.9
20260905003305 94 114 6.0 12.0 0.00 0.00 0.00 49 1009.8
20260905002312 94 101 6.0 10.0 0.00 0.00 0.00 49 1009.7
20260905001810 94 122 6.0 14.0 0.00 0.00 0.00 49 1009.7
20260905001308 94 122 6.0 13.0 0.00 0.00 0.00 49 1009.7
20260905000809 94 119 4.0 13.0 0.00 0.00 0.00 49 1009.7
20260904235810 95 101 6.0 13.0 0.00 0.00 0.00 49 1009.6
20260904235312 95 99 8.0 15.0 0.00 0.00 0.00 48 1009.6
20260904234310 95 106 7.0 12.0 0.00 0.00 0.00 49 1009.6
20260904233811 95 120 7.0 12.0 0.00 0.00 0.00 49 1009.5
20260904232809 95 146 7.0 12.0 0.00 0.00 0.00 49 1009.5
20260904232309 95 100 6.0 12.0 0.00 0.00 0.00 49 1009.5
20260904230808 97 118 7.0 14.0 0.00 0.00 0.00 47 1009.5
20260904225311 97 129 8.0 14.0 0.00 0.00 0.00 47 1009.7
20260904224810 97 158 9.0 14.0 0.00 0.00 0.00 47 1009.7
20260904224309 97 65 6.0 13.0 0.00 0.00 0.00 48 1009.7
20260904223309 97 88 7.0 14.0 0.00 0.00 0.00 46 1009.7
20260904222809 97 116 6.0 14.0 0.00 0.00 0.00 46 1009.6
20260904222309 98 117 9.0 14.0 0.00 0.00 0.00 46 1009.6
20260904221308 98 103 6.0 12.0 0.00 0.00 0.00 46 1009.6
20260904220308 98 117 9.0 18.0 0.00 0.00 0.00 45 1009.6
20260904215810 98 119 7.0 17.0 0.00 0.00 0.00 46 1009.6
20260904215308 97 130 5.0 13.0 0.00 0.00 0.00 46 1009.8
20260904214810 97 91 7.0 13.0 0.00 0.00 0.00 45 1009.8
20260904214311 98 82 9.0 15.0 0.00 0.00 0.00 45 1009.8
20260904213809 97 19 9.0 15.0 0.00 0.00 0.00 46 1009.9
20260904213310 97 135 5.0 12.0 0.00 0.00 0.00 46 1009.9
20260904212809 97 127 6.0 12.0 0.00 0.00 0.00 46 1010.0
20260904212310 97 122 7.0 10.0 0.00 0.00 0.00 47 1010.2
20260904211308 97 150 6.0 12.0 0.00 0.00 0.00 47 1010.2
20260904210808 97 139 5.0 9.0 0.00 0.00 0.00 46 1010.4
20260904205807 96 246 5.0 10.0 0.00 0.00 0.00 48 1010.5
20260904205307 96 186 6.0 12.0 0.00 0.00 0.00 48 1010.5
20260904204308 96 327 8.0 14.0 0.00 0.00 0.00 47 1010.5
20260904203807 96 147 9.0 17.0 0.00 0.00 0.00 47 1010.7
20260904201308 98 149 5.0 14.0 0.00 0.00 0.00 46 1011.0
20260904195808 98 80 8.0 16.0 0.00 0.00 0.00 47 1011.2
20260904195308 97 203 4.0 13.0 0.00 0.00 0.00 46 1011.2
20260904194807 97 91 4.0 12.0 0.00 0.00 0.00 47 1011.2
20260904190807 96 131 8.0 15.0 0.00 0.00 0.00 49 1011.6
20260904190307 96 182 6.0 14.0 0.00 0.00 0.00 48 1011.6
20260904185307 95 140 9.0 17.0 0.00 0.00 0.00 49 1011.8
20260904184807 95 185 6.0 14.0 0.00 0.00 0.00 49 1012.1
20260904183808 95 6 8.0 16.0 0.00 0.00 0.00 49 1012.1
20260904183308 95 13 7.0 14.0 0.00 0.00 0.00 51 1012.1
20260904181807 93 211 6.0 14.0 0.00 0.00 0.00 54 1012.3
20260904180807 93 148 5.0 13.0 0.00 0.00 0.00 54 1012.6
20260904180308 93 24 6.0 12.0 0.00 0.00 0.00 54 1012.6
20260904175307 94 182 6.0 18.0 0.00 0.00 0.00 55 1012.8
20260904173807 93 171 4.0 9.0 0.00 0.00 0.00 56 1012.8
20260904171807 93 154 5.0 10.0 0.00 0.00 0.00 56 1013.0
20260904171307 93 223 3.0 10.0 0.00 0.00 0.00 57 1013.2
20260904170307 92 320 5.0 12.0 0.00 0.00 0.00 57 1013.2
20260904164807 91 152 7.0 12.0 0.00 0.00 0.00 60 1013.5
20260904163807 91 190 5.0 12.0 0.00 0.00 0.00 61 1013.3
20260904162807 90 175 6.0 10.0 0.00 0.00 0.00 63 1013.3
20260904162307 90 323 7.0 10.0 0.00 0.00 0.00 64 1013.3
20260904160307 89 220 5.0 12.0 0.00 0.00 0.00 65 1013.3
20260904155807 89 2 7.0 12.0 0.00 0.00 0.00 67 1013.3
20260904155307 88 201 6.0 12.0 0.00 0.00 0.00 66 1013.2
20260904154807 88 217 6.0 10.0 0.00 0.00 0.00 68 1013.2
20260904153806 88 166 8.0 13.0 0.00 0.00 0.00 69 1013.3
20260904153307 87 183 6.0 12.0 0.00 0.00 0.00 71 1013.3
20260904152807 87 216 6.0 12.0 0.00 0.00 0.00 72 1013.3
20260904152307 86 212 3.0 10.0 0.00 0.00 0.00 73 1013.3
20260904141306 81 146 5.0 12.0 0.00 0.00 0.00 87 1013.1
20260904140806 80 159 4.0 12.0 0.00 0.00 0.00 88 1013.1
20260904140306 80 144 5.0 12.0 0.00 0.00 0.00 88 1013.1